Weather Roundup
Issued by NWS Chicago, IL

Home | Current Version | Previous Version | Text Only | Print | Product List | Glossary Off
Versions: 1 2 3 4 5 6 7 8 9 10 11 12 13 14 15 16 17 18 19 20 21 22 23 24 25 26 27 28 29 30 31 32 33 34 35 36 37 38 39 40 41 42 43 44 45 46 47 48 49 50

000
NZUS59 KLOT 271810
HRRLOT

CHICAGO AREA WEATHER ROUNDUP
NATIONAL WEATHER SERVICE CHICAGO/ROMEOVILLE IL
1200 PM CST TUE JAN 27 2015

NOTE: "FAIR" INDICATES FEW OR NO CLOUDS BELOW 12,000 FEET WITH NO
SIGNIFICANT WEATHER AND/OR OBSTRUCTIONS TO VISIBILITY.

* THESE STATIONS ARE NOT UNDER NWS QUALITY CONTROL. THEY ALSO MAY NOT
  REPORT WEATHER SUCH AS PRECIPITATION OR FOG.

ILZ005-006-012>014-019>023-271900-
NORTHEAST ILLINOIS

CITY           SKY/WX    TMP DP  RH WIND       PRES   REMARKS
OHARE          PTSUNNY   30  19  63 NE8       30.16S WCI  22
6HR MIN TEMP:  27; 6HR MAX TEMP:  30; 6HR PCP: TRACE;

MIDWAY         PTSUNNY   31  19  61 NE9       30.17R WCI  23
6HR MIN TEMP:  29; 6HR MAX TEMP:  32;

AURORA         CLOUDY    31  23  72 NE8       30.17R WCI  23
6HR MIN TEMP:  27; 6HR MAX TEMP:  31; 6HR PCP: TRACE;

LANSING*       PTSUNNY   29  17  60 NE7       30.17S WCI  22
JOLIET*        CLOUDY    30  23  76 NE5       30.18R WCI  25
WAUKEGAN       MOSUNNY   28  17  63 NE8       30.17S WCI  20
6HR MIN TEMP:  27; 6HR MAX TEMP:  29;

DUPAGE AIRPORT CLOUDY    29  21  72 NE9       30.16R WCI  20
6HR MIN TEMP:  26; 6HR MAX TEMP:  30; 6HR PCP: TRACE;

WHEELING       PTSUNNY   29  18  63 N8        30.19R WCI  21
6HR MIN TEMP:  27; 6HR MAX TEMP:  30;

KANKAKEE*      CLOUDY    29  21  72 NE8       30.17S WCI  21
MORRIS*        CLOUDY    30  28  93 NE3       30.17S FOG
LEWIS AIRPORT* CLOUDY    31  22  71 NE5       30.17R WCI  26
NORTHERLY IS     N/A     30  17  58 NE6         N/A  WCI  24
$$

WIZ051-052-058>065-066-070>072-271900-
SOUTHEAST WISCONSIN

CITY           SKY/WX    TMP DP  RH WIND       PRES   REMARKS
MILWAUKEE      MOSUNNY   29  15  56 E7        30.19R WCI  22
6HR MIN TEMP:  27; 6HR MAX TEMP:  29;

KENOSHA*       MOSUNNY   30  18  60 E7        30.18R WCI  23
RACINE*        MOSUNNY   30  16  56 N9        30.20R WCI  22
BURLINGTON     CLOUDY    28  18  65 E6        30.18R WCI  22
WAUKESHA       PTSUNNY   27  16  63 NE7       30.18S WCI  19
WEST BEND        N/A     28  14  54 NE5       30.19R WCI  23
$$

INZ001>003-010>013-019-020-271900-
NORTHWEST INDIANA

CITY           SKY/WX    TMP DP  RH WIND       PRES   REMARKS
GARY*          MOSUNNY   32  10  40 NE7       30.17S WCI  26
MICHIGAN CITY* NOT AVBL
RENSSELAER*    NOT AVBL
VALPARAISO     SUNNY     28   9  44 E3        30.15S
$$

LMZ740>746-271900-
SOUTHERN LAKE MICHIGAN

STATION/POSITION TIME  SKY/WX   TEMP WIND        PRES    VSBY
                                AIR  DIR/SP/G
                 (UTC)          (F)  (DEG/KT/KT) (MB)    (MI)
HARRISON CRIB    1800            27   40/  8/ 10   N/A
BURNHAM HARBOR   1800            29   50/  6/ 10   N/A
CALUMET HARBOR   1800            29   30/  7/  9   N/A
BURNS HARBOR     NOT AVBL
MICHIGAN CITY    1800            26  350/ 11/ 11   N/A
$$

ABBREVIATIONS USED IN REMARKS
   TC - TEMPERATURE IN CELSIUS
  WCI - WIND CHILL INDEX
   HX - HEAT INDEX
  VSB - VISIBILITY
$$



USA.gov is the U.S. government's official web portal to all federal, state and local government web resources and services.